[[{"header":{"parameterUnit":"m.s-1","parameterCategory":1,"la1":30.2991,"la2":30.254,"lo1":-89.0895,"lo2":-89.0444,"dy":0.0017,"dx":0.0017,"nx":28,"ny":28,"refTime":"2026-02-01T09:00:00:Z","depth":0,"parameterNumber":2,"parameterNumberName":"U-component_of_WINDS"},"data":[0,0,0,0,0,0,0,0,0,0,0,0,0,0,0,0,0,0,0,0,0,0,0,0,0,0,0,0,0,0,0,0,0,0,0,0,0,0,0,0,0,0,0,0,0,0,0,0,0,0,0,0,0,0,0,0,0,0,2.779,2.7791,0,2.7904,2.7905,2.7906,2.7928,2.7927,2.7926,2.7925,2.8045,2.8049,2.8053,0,0,0,0,0,0,0,0,0,0,0,0,0,2.7595,2.7598,2.779,2.7791,2.7793,2.7903,2.7905,2.7907,2.7928,2.7927,2.7926,2.7925,2.8043,2.8048,2.8053,0,0,0,0,0,0,0,0,0,0,0,0,0,2.7691,2.7599,2.779,2.7817,2.782,2.7903,2.7905,2.7907,2.7928,2.7927,2.7926,2.7924,2.8042,2.8048,2.8054,2.8118,0,0,2.8072,2.8075,0,0,0,0,0,0,0,0,2.7686,2.7698,2.7811,2.7815,2.7819,2.79,2.788,2.7978,2.7929,2.7887,2.7925,2.7924,2.7998,2.8007,2.8032,2.8124,2.8129,2.8073,2.8076,2.8079,2.8081,0,0,0,0,0,0,0,2.7679,2.7694,2.7835,2.7813,2.7818,2.7824,2.7836,2.7899,2.7949,2.7891,2.7893,2.7906,2.8,2.8026,2.8035,2.8131,2.8073,2.8078,2.8082,2.8084,2.8283,2.8285,0,0,0,0,0,0,2.7667,2.7688,2.7831,2.7838,2.7747,2.7829,2.7843,2.7876,2.7948,2.7958,2.7907,2.7906,2.8016,2.8028,2.8039,2.8121,2.8079,2.8085,2.8088,2.8282,2.8284,2.8285,0,0,0,0,0,0,2.7663,2.768,2.7827,2.7764,2.7783,2.7834,2.7871,2.7878,2.7905,2.796,2.797,2.7924,2.8016,2.8031,2.8099,2.8125,2.8087,2.8093,2.828,2.8282,2.8285,2.8283,0,0,0,0,0,0,2.7657,2.7678,2.7702,2.7764,2.7786,2.7883,2.7872,2.7882,2.7915,2.7915,2.7979,2.7988,2.8016,2.8089,2.8105,2.8133,2.8098,2.8278,2.8281,2.8284,2.8281,2.8286,2.8289,0,0,0,0,0,2.765,2.7698,2.7703,2.772,2.7817,2.7885,2.7897,2.7927,2.7917,2.7942,2.7978,2.7986,2.812,2.8096,2.8114,2.8144,2.8276,2.828,2.8284,2.828,2.8285,2.8289,0,0,0,0,0,0,2.7638,2.7706,2.7713,2.7782,2.7827,2.7888,2.7921,2.7931,2.7981,2.798,2.8016,2.803,2.8096,2.8127,2.81,2.8211,2.8197,2.8205,2.8188,2.8194,2.8198,2.8189,2.8103,0,0,0,0,0,2.7644,2.7692,2.7749,2.7804,2.7826,2.787,2.79,2.7919,2.7968,2.7987,2.8028,2.8076,2.8129,2.8163,2.8215,2.8286,2.8301,2.8315,2.8319,2.8322,2.8328,2.8369,2.8377,2.8298,2.8298,2.8298,0,0,2.7656,2.7699,2.7727,2.7803,2.784,2.789,2.7886,2.7939,2.7977,2.7996,2.8062,2.8094,2.815,2.822,2.8253,2.8248,2.8353,2.8327,2.8329,2.8334,2.8374,2.8381,2.8388,2.83,2.83,2.8299,0,0,2.7703,2.7739,2.779,2.7828,2.7884,2.7912,2.7924,2.7984,2.8006,2.8073,2.8089,2.8135,2.8225,2.8264,2.8296,2.8359,2.8369,2.8375,2.8395,2.8435,2.8441,2.8447,2.847,2.8478,2.838,2.8381,2.8381,0,2.7711,2.7785,2.7815,2.7868,2.7901,2.792,2.7972,2.8008,2.8078,2.8101,2.8094,2.8208,2.8247,2.8327,2.8342,2.8367,2.8383,2.8368,2.8438,2.8444,2.845,2.8472,2.8481,2.8381,2.8381,2.8381,2.8381,0,2.7793,2.7845,2.7879,2.7946,2.7983,2.8035,2.8074,2.8109,2.8125,2.8154,2.8223,2.8271,2.8333,2.8353,2.8369,2.8436,2.8431,2.843,2.8417,2.8457,2.8479,2.8488,2.8381,2.8381,2.8381,2.8381,0,0,2.7836,2.7919,2.7931,2.7962,2.8026,2.8067,2.812,2.818,2.821,2.8258,2.8304,2.838,2.838,2.8416,2.8437,2.8472,2.852,2.8468,2.8469,2.8476,2.8597,2.8598,2.8607,2.8527,2.8528,2.853,2.8593,0,2.7891,2.7986,2.8015,2.8095,2.8144,2.8163,2.821,2.8255,2.8284,2.8331,2.8364,2.8417,2.8413,2.8435,2.847,2.8507,2.8545,2.8502,2.8572,2.8574,2.8557,2.8619,2.8619,2.8676,2.8602,2.8603,2.8604,0,2.7969,2.8018,2.8102,2.816,2.8182,2.8224,2.8281,2.8325,2.8377,2.8396,2.8436,2.8455,2.8513,2.8496,2.8577,2.8547,2.8578,2.86,2.8603,2.8611,2.8592,2.8629,2.8695,2.8704,2.8618,2.8617,2.8616,0,2.7993,2.808,2.8142,2.8168,2.8237,2.8266,2.8296,2.8347,2.8381,2.8431,2.8454,2.8511,2.8543,2.8587,2.8621,2.8605,2.8699,2.8685,2.8718,2.8717,2.8737,2.8735,2.8809,2.8755,2.8755,2.8755,2.8755,0,2.8052,2.8103,2.8154,2.8192,2.8251,2.8283,2.8341,2.8372,2.8417,2.8463,2.8483,2.8526,2.8567,2.8616,2.8643,2.8706,2.872,2.8738,2.8745,2.8737,2.8734,2.8757,2.8754,2.8757,2.8757,2.8756,2.8756,0,2.8089,2.8124,2.8193,2.8253,2.827,2.831,2.8362,2.8401,2.8431,2.8488,2.8504,2.8552,2.861,2.8648,2.8722,2.874,2.881,2.8815,2.8792,2.8796,2.8826,2.8823,2.8918,2.8933,2.8868,2.8868,2.8869,0,2.8124,2.8164,2.8228,2.826,2.829,2.8341,2.8376,2.841,2.8446,2.8508,2.854,2.8599,2.8648,2.8741,2.8783,2.884,2.8848,2.8877,2.8856,2.8847,2.8849,2.8846,2.8851,2.888,2.8881,2.8881,2.8882,0,2.8184,2.82,2.8249,2.8305,2.8346,2.8391,2.8437,2.8462,2.8504,2.8544,2.8603,2.8641,2.8717,2.8777,2.8838,2.8871,2.8884,2.8888,2.8899,2.8891,2.8876,2.8885,2.8802,2.8886,2.8885,2.8885,2.8885,2.8885,2.8222,2.8259,2.831,2.8364,2.8402,2.8444,2.8484,2.8518,2.8568,2.8632,2.8649,2.8712,2.8764,2.8847,2.8881,2.8931,2.8928,2.8943,2.8947,2.895,2.8951,2.8868,2.8942,2.8942,2.8942,2.8942,2.8942,0,2.8284,2.8317,2.8367,2.843,2.8473,2.848,2.8532,2.8568,2.8622,2.8668,2.8716,2.8785,2.8843,2.8889,2.8949,2.898,2.8988,2.8995,2.8993,2.9001,2.895,2.8935,2.8988,2.8988,2.8988,2.8988,2.8988,2.8988,2.8321,2.8384,2.8405,2.8487,2.8521,2.8581,2.861,2.865,2.8687,2.8763,2.881,2.884,2.8887,2.895,2.9004,2.9016,2.9038,2.9044,2.9057,2.9009,2.9004,2.8999,2.8986,2.9048,2.9048,2.9104,2.9104,2.9105]},{"header":{"parameterUnit":"m.s-1","parameterCategory":1,"la1":30.2991,"la2":30.254,"lo1":-89.0895,"lo2":-89.0444,"dy":0.0017,"dx":0.0017,"nx":28,"ny":28,"refTime":"2026-02-01T09:00:00:Z","depth":0,"parameterNumber":3,"parameterNumberName":"V-component_of_WINDS"},"data":[0,0,0,0,0,0,0,0,0,0,0,0,0,0,0,0,0,0,0,0,0,0,0,0,0,0,0,0,0,0,0,0,0,0,0,0,0,0,0,0,0,0,0,0,0,0,0,0,0,0,0,0,0,0,0,0,0,0,0.3906,0.3906,0,0.3911,0.3911,0.3911,0.3917,0.3917,0.3917,0.3917,0.3921,0.3921,0.3921,0,0,0,0,0,0,0,0,0,0,0,0,0,0.3896,0.3896,0.3906,0.3906,0.3906,0.3911,0.3911,0.3911,0.3917,0.3917,0.3917,0.3917,0.3921,0.3921,0.3921,0,0,0,0,0,0,0,0,0,0,0,0,0,0.3901,0.3896,0.3906,0.3909,0.3909,0.3911,0.3911,0.3911,0.3917,0.3917,0.3917,0.3917,0.3921,0.3921,0.3921,0.392,0,0,0.3922,0.3922,0,0,0,0,0,0,0,0,0.3901,0.3901,0.3908,0.3909,0.3909,0.3913,0.391,0.3914,0.3917,0.3914,0.3917,0.3917,0.3918,0.3919,0.392,0.392,0.392,0.3922,0.3922,0.3922,0.3922,0,0,0,0,0,0,0,0.39,0.3901,0.3908,0.3909,0.3909,0.3909,0.391,0.3911,0.3915,0.3914,0.3915,0.3915,0.3919,0.3919,0.392,0.392,0.3922,0.3922,0.3922,0.3922,0.3917,0.3917,0,0,0,0,0,0,0.39,0.3901,0.3908,0.3908,0.3905,0.3909,0.391,0.3912,0.3915,0.3916,0.3915,0.3915,0.3919,0.392,0.392,0.3917,0.3922,0.3922,0.3922,0.3917,0.3917,0.3917,0,0,0,0,0,0,0.39,0.39,0.3907,0.3904,0.3905,0.391,0.3911,0.3912,0.3913,0.3916,0.3917,0.3915,0.3919,0.392,0.3919,0.3917,0.3922,0.3922,0.3917,0.3917,0.3917,0.3912,0,0,0,0,0,0,0.3899,0.39,0.3901,0.3904,0.3906,0.3908,0.3911,0.3912,0.3913,0.3914,0.3917,0.3917,0.3919,0.3919,0.3919,0.3917,0.3922,0.3918,0.3917,0.3917,0.3912,0.3911,0.3911,0,0,0,0,0,0.3899,0.3899,0.3901,0.3901,0.3906,0.3908,0.3908,0.3911,0.3913,0.3913,0.3914,0.3917,0.3917,0.3919,0.3919,0.3917,0.3918,0.3917,0.3917,0.3912,0.3911,0.3911,0,0,0,0,0,0,0.3895,0.39,0.3901,0.3903,0.3905,0.3909,0.3908,0.3911,0.3912,0.3912,0.3915,0.3916,0.3915,0.3916,0.3918,0.3915,0.3918,0.3917,0.3914,0.3913,0.3912,0.3912,0.3922,0,0,0,0,0,0.3894,0.3896,0.3899,0.39,0.3901,0.3904,0.3905,0.3907,0.3909,0.391,0.3912,0.3913,0.3913,0.3913,0.3914,0.3912,0.3912,0.3911,0.391,0.3909,0.3909,0.3906,0.3905,0.3916,0.3916,0.3916,0,0,0.3893,0.3895,0.3896,0.3899,0.3901,0.3902,0.3905,0.3906,0.3906,0.391,0.391,0.3911,0.3912,0.391,0.391,0.3911,0.3906,0.3909,0.3908,0.3908,0.3906,0.3905,0.3904,0.3915,0.3915,0.3915,0,0,0.389,0.3893,0.3893,0.3894,0.3897,0.3899,0.3898,0.3901,0.3902,0.3902,0.3904,0.3904,0.3905,0.3905,0.3905,0.39,0.3902,0.39,0.3896,0.3894,0.3893,0.3892,0.3889,0.3888,0.39,0.39,0.39,0,0.3888,0.3889,0.3893,0.3893,0.3893,0.3897,0.3896,0.3897,0.3899,0.3899,0.3901,0.3901,0.3902,0.39,0.3898,0.3899,0.3897,0.39,0.3893,0.3892,0.3891,0.3889,0.3888,0.3899,0.3899,0.39,0.39,0,0.3885,0.3886,0.3886,0.3888,0.3888,0.3888,0.389,0.389,0.3892,0.3893,0.3891,0.3893,0.3893,0.3892,0.3894,0.389,0.389,0.3892,0.3895,0.389,0.3887,0.3886,0.3899,0.3899,0.3899,0.3899,0,0,0.3882,0.3884,0.3884,0.3884,0.3886,0.3886,0.3885,0.3885,0.3884,0.3885,0.3884,0.3883,0.3884,0.3885,0.3886,0.3884,0.3878,0.3886,0.3886,0.3884,0.3871,0.3869,0.3868,0.3879,0.3879,0.3879,0.3871,0,0.3879,0.3878,0.388,0.3878,0.3878,0.388,0.3879,0.388,0.388,0.3879,0.388,0.3879,0.3881,0.3881,0.3879,0.3879,0.3875,0.388,0.3876,0.3876,0.3876,0.3867,0.3865,0.3858,0.387,0.387,0.387,0,0.3876,0.3876,0.3874,0.3875,0.3875,0.3874,0.3873,0.3872,0.3872,0.3872,0.3871,0.3873,0.387,0.3873,0.3869,0.3872,0.387,0.387,0.387,0.3869,0.3872,0.3866,0.3856,0.3855,0.3868,0.3868,0.3868,0,0.3872,0.3872,0.387,0.387,0.3871,0.387,0.387,0.387,0.3869,0.3868,0.3867,0.3866,0.3865,0.3863,0.3863,0.3865,0.3858,0.3861,0.3857,0.3857,0.3856,0.3856,0.3845,0.3856,0.3856,0.3856,0.3856,0,0.3869,0.3867,0.3868,0.3868,0.3865,0.3867,0.3864,0.3864,0.3863,0.3862,0.3863,0.3861,0.3862,0.3859,0.3859,0.3855,0.3855,0.3854,0.3854,0.3854,0.3854,0.3853,0.3853,0.3855,0.3855,0.3855,0.3855,0,0.3864,0.3865,0.3863,0.3864,0.3863,0.3862,0.3861,0.3859,0.3859,0.3857,0.3856,0.3856,0.3853,0.3853,0.385,0.3849,0.3844,0.3844,0.3844,0.3844,0.3839,0.3839,0.3827,0.3825,0.3838,0.3838,0.3837,0,0.3862,0.3861,0.386,0.3859,0.3859,0.3857,0.3856,0.3857,0.3855,0.3854,0.3852,0.3849,0.3847,0.3841,0.384,0.3837,0.3837,0.3833,0.3837,0.3836,0.3836,0.3836,0.3835,0.3832,0.3832,0.3832,0.3832,0,0.3857,0.3857,0.3856,0.3854,0.3853,0.3851,0.385,0.3849,0.3849,0.3847,0.3844,0.3842,0.3838,0.3834,0.3831,0.383,0.383,0.3831,0.3829,0.3829,0.3828,0.3827,0.3841,0.3831,0.3831,0.3831,0.3831,0.3831,0.3853,0.3851,0.385,0.3848,0.3847,0.3845,0.3843,0.3843,0.384,0.3837,0.3837,0.3833,0.3831,0.3826,0.3824,0.382,0.3822,0.382,0.3819,0.3819,0.3818,0.3829,0.382,0.382,0.382,0.382,0.382,0,0.3848,0.3847,0.3845,0.3842,0.384,0.3841,0.3839,0.3837,0.3833,0.3831,0.3829,0.3824,0.382,0.3818,0.3813,0.381,0.381,0.3809,0.3809,0.3809,0.3818,0.3819,0.3809,0.3809,0.3809,0.3809,0.3809,0.3809,0.3845,0.3841,0.3841,0.3836,0.3835,0.3831,0.383,0.3827,0.3825,0.382,0.3817,0.3816,0.3813,0.3808,0.3804,0.3803,0.3801,0.3799,0.3799,0.3807,0.3808,0.3809,0.381,0.3799,0.3799,0.379,0.379,0.379]}]]